Voltar ao catálogo

STARLINK-37638

AtivoComunicaçõesSSO
NORAD 69144·PAYLOAD·🇺🇸 United States

Lançado May 20, 2026 de Vandenberg Space Force Base

Loading…

Próximas Passagens (próximas 24 horas)

TLE

AtualizadoSource: CelesTrak SupGP

Época: Sep 14, 2026, 21:06 UTC

1 69144C 26110W   26257.87965278  .00071934  00000+0  22338-2 0  2578
2 69144  97.2849  93.0760 0001859  91.0304  83.8295 15.33389842    12

Acompanhe STARLINK-37638 em tempo real com AllMySat

Download on the App Store